2019-038M (44397 NORAD) Tracking and Keplerian Element Data

This shows tracking and keplerian element data for the satellite.

Feedback or suggestion? Click here.




ElementValue
Catalog44397
Name2019-038M
Epoch Orbit429
Epoch Day214.89888141
Epoch Year2019
RAAN176.2848
Inclination97.4917
Eccentricity0.0026764
Argument of Perigee143.2017
Mean Anonmoly217.1057
Mean Motion15.11527566
Decay Rate5.02E-06
L11 44397U 19038M 19214.89888141 .00000502 00000-0 33171-4 0 9998
L22 44397 97.4917 176.2848 0026764 143.2017 217.1057 15.11527566 4292

Live tracking and technical data element details for 2019-038M (NORAD 44397). 2019-038M can be tracked NOW for your location showing map with azimuth and elevation plus other details from your city location.

Track the satellite on the map from your city or location and see movement details for azimuth, elevation, latitude, longitude, range, height, and movement on the map or in text.







IsCatalogInMostPopularTable: catalog: 44397, numindb: 14
Update: records affected: 1



GetName: 44397 2019-038M

Hit Count: updated at: Tue, 22 Oct 2019 23:30:20 GMT